Albion, NE

1:46 AM CDT on June 22, 2018 (GMT -0500)
Albion Municipal

Weather History for KBVN - May, 2018

Change the Weather History Date:

Wednesday, May 23, 2018

  Actual Average (KOFK) Record (KOFK)
Temperature  
Mean Temperature 76 °F -  
Max Temperature 88 °F 74 °F 95 °F (1950)
Min Temperature 65 °F 52 °F 35 °F (1913)
Cooling Degree Days 12    
Growing Degree Days 26 (Base 50)    
Moisture  
Dew Point 64 °F    
Average Humidity 70    
Maximum Humidity 92    
Minimum Humidity 37    
Precipitation  
Precipitation 0.03 in - - ()
Sea Level Pressure  
Sea Level Pressure 29.98 in    
Wind  
Wind Speed 10 mph (SSE)    
Max Wind Speed 21 mph    
Max Gust Speed 28 mph    
Visibility 10 miles    
Events Thunderstorm    
Averages and records for this station are not official NWS values.
T = Trace of Precipitation, MM = Missing Value Source: NWS Daily Summary

Daily Weather History Graph

Daily Weather History Graph

Search for Another Location

Airport or City:

Astronomy

May. 23, 2018 Rise Set
Actual Time 6:05 AM CDT 8:53 PM CDT
Civil Twilight 5:32 AM CDT 9:25 PM CDT
Nautical Twilight 4:51 AM CDT 10:06 PM CDT
Astronomical Twilight 4:04 AM CDT 10:54 PM CDT
Moon 2:49 PM CDT (5/23) 3:14 AM CDT (5/23)
Length of Visible Light 15h 52m
Length of Day
14h 47m
Waxing Gibbous, 67% of the Moon is Illuminated
May 23
Waxing Gibbous
May 29
Full
Jun 6
Last Quarter
Jun 13
New
Jun 20
First Quarter

Hourly Weather History & Observations

Time (CDT) Temp. Heat Index Dew Point Humidity Pressure Visibility Wind Dir Wind Speed Gust Speed Precip Events Conditions
12:15 AM 72.7 °F - 62.1 °F 69% 29.96 in 10.0 mi SSE 9.2 mph - N/A   Clear
12:55 AM 70.5 °F - 63.0 °F 77% 29.96 in 10.0 mi SE 8.1 mph - N/A   Clear
1:15 AM 70.2 °F - 63.3 °F 79% 29.96 in 10.0 mi SE 8.1 mph - N/A   Clear
1:35 AM 69.4 °F - 63.5 °F 81% 29.96 in 10.0 mi SE 6.9 mph - N/A   Clear
1:55 AM 69.4 °F - 63.9 °F 82% 29.96 in 10.0 mi SSE 6.9 mph - N/A   Clear
2:15 AM 68.9 °F - 63.9 °F 84% 29.96 in 10.0 mi SE 5.8 mph - N/A   Clear
2:35 AM 67.6 °F - 63.7 °F 87% 29.96 in 10.0 mi SE 4.6 mph - N/A   Clear
2:55 AM 67.5 °F - 63.5 °F 87% 29.96 in 10.0 mi SE 5.8 mph - N/A   Clear
3:15 AM 65.8 °F - 63.1 °F 91% 29.96 in 10.0 mi SE 5.8 mph - N/A   Clear
3:35 AM 66.4 °F - 63.5 °F 90% 29.96 in 10.0 mi SE 5.8 mph - N/A   Clear
3:55 AM 66.2 °F - 63.5 °F 91% 29.96 in 10.0 mi SE 6.9 mph - N/A   Clear
4:15 AM 66.6 °F - 63.5 °F 90% 29.97 in 10.0 mi ESE 8.1 mph - N/A   Clear
4:35 AM 66.2 °F - 63.5 °F 91% 29.97 in 10.0 mi SE 6.9 mph - N/A   Clear
4:55 AM 65.7 °F - 63.1 °F 92% 29.98 in 10.0 mi SE 6.9 mph - N/A   Clear
5:15 AM 65.7 °F - 63.1 °F 92% 29.98 in 10.0 mi SE 6.9 mph - N/A   Clear
5:35 AM 66.2 °F - 63.3 °F 90% 29.99 in 10.0 mi SSE 8.1 mph - N/A   Clear
5:55 AM 66.7 °F - 63.5 °F 89% 29.99 in 10.0 mi SSE 8.1 mph - N/A   Clear
6:15 AM 66.6 °F - 63.5 °F 90% 29.99 in 10.0 mi SSE 8.1 mph - N/A   Clear
6:35 AM 67.3 °F - 63.9 °F 89% 30.00 in 10.0 mi SSE 6.9 mph - N/A   Clear
6:55 AM 68.0 °F - 64.4 °F 88% 30.00 in 10.0 mi SSE 6.9 mph - N/A   Clear
7:15 AM 68.9 °F - 64.8 °F 87% 30.01 in 10.0 mi SSE 5.8 mph - N/A   Clear
7:35 AM 69.4 °F - 65.3 °F 87% 30.01 in 10.0 mi SSE 6.9 mph - N/A   Clear
7:55 AM 69.8 °F - 65.5 °F 86% 30.01 in 10.0 mi SSE 8.1 mph - N/A   Clear
8:15 AM 70.3 °F - 65.7 °F 85% 30.01 in 10.0 mi SSE 9.2 mph - N/A   Clear
8:35 AM 71.8 °F - 65.8 °F 81% 30.01 in 10.0 mi South 9.2 mph - N/A   Clear
8:55 AM 74.1 °F - 66.2 °F 76% 30.01 in 10.0 mi South 11.5 mph 18.4 mph N/A   Clear
9:15 AM 76.1 °F - 66.2 °F 71% 30.01 in 10.0 mi South 11.5 mph 19.6 mph N/A   Clear
9:35 AM 76.8 °F - 66.0 °F 69% 30.01 in 10.0 mi South 13.8 mph - N/A   Clear
9:55 AM 78.1 °F - 66.2 °F 67% 30.01 in 10.0 mi South 16.1 mph 20.7 mph N/A   Clear
10:15 AM 79.5 °F - 66.0 °F 63% 30.01 in 10.0 mi South 15.0 mph 25.3 mph N/A   Clear
10:35 AM 80.6 °F 82.7 °F 66.2 °F 61% 30.01 in 10.0 mi South 17.3 mph 23.0 mph N/A   Clear
10:55 AM 81.3 °F 83.6 °F 66.7 °F 61% 30.01 in 10.0 mi South 18.4 mph 27.6 mph N/A   Clear
11:15 AM 82.2 °F 84.7 °F 67.1 °F 60% 30.01 in 10.0 mi SSW 18.4 mph 23.0 mph N/A   Clear
11:55 AM 82.4 °F 85.0 °F 67.1 °F 60% 30.01 in 10.0 mi South 19.6 mph 25.3 mph N/A   Scattered Clouds
12:15 PM 83.5 °F 86.7 °F 68.2 °F 60% 30.01 in 10.0 mi SSW 17.3 mph 23.0 mph N/A   Scattered Clouds
12:35 PM 84.2 °F 87.6 °F 68.4 °F 59% 30.01 in 10.0 mi South 18.4 mph 23.0 mph N/A   Mostly Cloudy
12:55 PM 85.1 °F 88.8 °F 68.9 °F 58% 30.00 in 10.0 mi South 17.3 mph 26.5 mph N/A   Scattered Clouds
1:15 PM 84.9 °F 87.9 °F 67.6 °F 56% 30.00 in 10.0 mi South 16.1 mph 26.5 mph N/A   Mostly Cloudy
1:35 PM 85.6 °F 88.8 °F 67.6 °F 55% 30.00 in 10.0 mi South 17.3 mph 24.2 mph N/A   Mostly Cloudy
1:55 PM 85.1 °F 87.9 °F 67.1 °F 55% 29.99 in 10.0 mi South 16.1 mph 23.0 mph N/A   Mostly Cloudy
2:15 PM 84.7 °F 86.6 °F 65.5 °F 52% 29.98 in 10.0 mi South 15.0 mph 23.0 mph N/A   Mostly Cloudy
2:35 PM 86.0 °F 86.8 °F 63.1 °F 46% 29.97 in 10.0 mi South 12.7 mph 26.5 mph N/A   Mostly Cloudy
2:55 PM 87.3 °F 88.0 °F 62.8 °F 44% 29.96 in 10.0 mi South 18.4 mph 24.2 mph N/A   Mostly Cloudy
3:15 PM 88.0 °F 88.4 °F 62.2 °F 42% 29.96 in 10.0 mi South 17.3 mph 25.3 mph N/A   Mostly Cloudy
3:35 PM 88.0 °F 88.1 °F 61.7 °F 41% 29.95 in 10.0 mi South 18.4 mph 27.6 mph N/A   Mostly Cloudy
3:55 PM 87.3 °F 87.0 °F 60.4 °F 40% 29.94 in 10.0 mi SSE 16.1 mph 23.0 mph N/A   Mostly Cloudy
4:15 PM 88.2 °F 87.3 °F 59.2 °F 37% 29.93 in 10.0 mi South 17.3 mph 26.5 mph N/A   Mostly Cloudy
4:35 PM 86.9 °F 86.1 °F 58.5 °F 38% 29.95 in 10.0 mi South 20.7 mph 24.2 mph N/A   Scattered Clouds
4:55 PM 86.7 °F 85.9 °F 58.6 °F 38% 29.95 in 10.0 mi South 17.3 mph 25.3 mph N/A Thunderstorm Scattered Clouds
5:15 PM 85.6 °F 84.7 °F 57.2 °F 38% 29.95 in 10.0 mi South 18.4 mph 24.2 mph N/A   Scattered Clouds
5:35 PM 84.7 °F 84.2 °F 58.5 °F 41% 29.96 in 10.0 mi South 9.2 mph - N/A   Mostly Cloudy
5:55 PM 84.0 °F 84.2 °F 60.3 °F 45% 29.97 in 10.0 mi West 9.2 mph - N/A   Overcast
6:15 PM 77.9 °F - 62.4 °F 59% 29.97 in 10.0 mi West 8.1 mph - N/A   Mostly Cloudy
6:35 PM 74.3 °F - 64.0 °F 70% 29.98 in 4.0 mi ESE 8.1 mph 16.1 mph 0.02 in   Mostly Cloudy
6:55 PM 73.9 °F - 65.1 °F 74% 29.97 in 10.0 mi ENE 6.9 mph - 0.03 in   Mostly Cloudy
7:15 PM 74.3 °F - 64.4 °F 71% 29.97 in 10.0 mi East 6.9 mph - N/A Thunderstorm Scattered Clouds
7:35 PM 74.3 °F - 64.9 °F 72% 29.96 in 10.0 mi Calm Calm - N/A   Scattered Clouds
7:55 PM 77.2 °F - 62.8 °F 61% 29.96 in 10.0 mi South 5.8 mph - N/A   Scattered Clouds
8:15 PM 75.6 °F - 64.2 °F 68% 29.96 in 10.0 mi Calm Calm - N/A   Mostly Cloudy
8:35 PM 75.2 °F - 64.4 °F 69% 29.96 in 10.0 mi ESE 4.6 mph - N/A   Scattered Clouds
8:55 PM 75.7 °F - 63.7 °F 66% 29.96 in 10.0 mi ESE 8.1 mph - N/A   Scattered Clouds
9:15 PM 74.1 °F - 63.7 °F 70% 29.96 in 10.0 mi SE 5.8 mph - N/A   Clear
9:35 PM 71.2 °F - 64.6 °F 79% 29.97 in 10.0 mi SE 3.5 mph - N/A   Clear
9:55 PM 69.6 °F - 64.6 °F 84% 29.98 in 10.0 mi SE 3.5 mph - N/A   Clear
10:15 PM 69.8 °F - 64.4 °F 83% 29.98 in 10.0 mi SE 6.9 mph - N/A   Clear
10:35 PM 73.4 °F - 63.5 °F 71% 29.98 in 10.0 mi SSE 8.1 mph - N/A   Clear
10:55 PM 72.7 °F - 63.7 °F 73% 29.98 in 10.0 mi SE 9.2 mph - N/A   Clear
11:15 PM 73.0 °F - 63.9 °F 73% 29.98 in 10.0 mi SSE 10.4 mph - N/A   Clear
11:35 PM 73.4 °F - 63.7 °F 71% 29.97 in 10.0 mi SSE 10.4 mph - N/A   Clear
11:55 PM 73.0 °F - 63.9 °F 73% 29.98 in 10.0 mi SSE 9.2 mph - N/A   Clear